Location: Bottens
(46.6171°N, 6.6605°E)
Time: 19:46:32
(UTC+00:00)

Cosmos 1356 - Pass Details

Date: 20 June 2021
Orbit: 438 x 439 km, 81.1° (Epoch: 02 August)

Event Time Altitude Azimuth Distance (km) Brightness Sun altitude
Exits shadow 00:38:07 43° 255° (WSW) 629 3.8 -18.5°
Maximum altitude 00:38:36 47° 284° (WNW) 592 3.9 -18.5°
Drops below altitude 10° 00:41:54 10° 0° (N) 1,562 7.3 -18.3°
Sets 00:44:01 0° 6° (N) 2,436 8.7 -18.2°
